sat.trackr.live / text

‹ back to catalog

STARLINK-1357

NORAD 45565 · 2020-025AL

PAYLOAD ACTIVE UNKNOWN

§ Identity

Operator
Country
US
Launch date
2020-04-22
Launch site
AFETR
Launch vehicle
Mass (kg)
RCS (m²)

Purposes: comms

External: N2YO · Heavens-Above · Gunter

§ Orbital elements

Epoch: 2026-09-19T10:41:16.474848Z

Period
90.88 min
Inclination
53.0361°
Eccentricity
0.0006629
Mean motion
15.84428890 rev/d
Perigee alt
313.5 km
Apogee alt
322.4 km
Semi-major
6,696.1 km
B*
4.5899e-4
RAAN
159.4148°
Arg perigee
113.9184°
Mean anomaly
246.2533°
Rev number
35,650

§ Raw data

STARLINK-13571 45565U 20025AL  26262.44532957  .00107803  00000+0  45899-3 0  99972 45565  53.0361 159.4148 0006629 113.9184 246.2533 15.84428890356500

JSON: /api/v1/satellites/45565 · /tle

For live sub-satellite position, see the globe view (requires WebGL).

§ Visibility from observer

Set your observer location to see the next 7 days of passes ≥ 10°. The values pass through the URL so the page stays shareable.

No JS? Fill the form by hand. The geolocation button needs JavaScript.